SCP
0 0 0 0 0 0 0 0 0 0 0 0 0 0 0 0 0 0 0 0 0 0 0 0 0 0 0 0 0 0 0 0
0 0 0 0 0 0 0 0 0 0 0 0 0 0 0 0 0 0 0 0 0 0 0 0 0 0 0 0 0 0 0 0
0 0 0 0 0 0 0 0 0 0 0 0 0 0 0 0 0 0 0 0 0 0 0 0 0 0 0 0 0 0 0 0
0 0 0 0 0 0 0 0 0 0 0 0 0 0 0 0 0 0 0 0 0 0 0 0 0 0 0 0 0 0 0 0
0 0 0 0 0 0 0 0 0 0 0 0 0 0 0 0 0 0 0 0 0 0 0 0 0 0 0 0 0 0 0 0
0 0 0 0 0 0 0 0 0 0 0 0 0 0 0 0 0 0 0 0 0 0 0 0 0 0 0 0 0 0 0 0
0 0 0 0 0 0 0 0 0 0 0 0 0 0 0 0 0 0 0 0 0 0 0 0 0 0 0 0 0 0 0 0
0 0 0 0 0 0 0 0 0 0 0 0 0 0 0 0 0 0 0 0 0 0 0 0 0 0 0 0 0 0 0 0
0 0 0 0 0 0 0 0 0 0 0 0 0 0 0 0 0 0 0 0 0 0 0 0 0 0 0 0 0 0 0 0
0 0 0 0 0 0 0 0 0 0 0 0 0 0 0 0 0 0 0 0 0 0 0 0 0 0 0 0 0 0 0 0
0 0 0 0 0 0 0 0 0 0 0 0 0 0 0 0 0 0 0 0 0 0 0 0 0 0 0 0 0 0 0 0
0 0 0 0 0 0 0 0 0 0 0 0 0 0 0 0 0 0 0 0 0 0 0 0 0 0 0 0 0 0 0 0
0 0 0 0 0 0 0 0 0 0 0 0 0 0 0 0 0 0 0 0 0 0 0 0 0 0 0 0 0 0 0 0
0 0 0 0 0 0 0 0 0 0 0 0 0 0 0 0 0 0 0 0 0 0 0 0 0 0 0 0 0 0 0 0
0 0 0 0 0 0 0 0 0 0 0 0 0 0 0 0 0 0 0 0 0 0 0 0 0 0 0 0 0 0 0 0
0 0 0 0 0 0 0 0 0 0 0 0 0 0 0 0 0 0 0 0 0 0 0 0 0 0 0 0 0 0 0 0
0 0 0 0 0 0 0 0 0 0 0 0 0 0 0 0 0 0 0 0 0 0 0 0 0 0 0 0 0 0 0 0
0 0 0 0 0 0 0 0 0 0 0 0 0 0 0 0 0 0 0 0 0 0 0 0 0 0 0 0 0 0 0 0
0 0 0 0 0 0 0 0 0 0 0 0 0 0 0 0 0 0 0 0 0 0 0 0 0 0 0 0 0 0 0 0
0 0 0 0 0 0 0 0 0 0 0 0 0 0 0 0 0 0 0 0 0 0 0 0 0 0 0 0 0 0 0 0
Wind_Speed_500mb
80 81 75 73 76 78 77 77 75 74 72 70 67 67 69 68 63 55 48 42 38 33 30 25 21 17 12 7 2 5 11 13
77 75 71 71 75 78 81 81 80 78 76 73 70 73 74 68 61 55 48 44 39 36 32 28 25 20 15 11 5 4 8 12
73 72 73 74 77 82 83 85 84 80 77 74 75 79 76 69 62 57 51 46 43 40 37 34 29 23 20 15 10 8 10 12
70 75 77 78 81 84 86 87 84 82 80 79 82 82 77 70 64 59 54 51 49 45 41 37 32 28 25 21 15 15 14 16
71 78 80 81 85 87 89 88 85 85 83 84 86 82 75 67 63 59 57 55 51 48 45 41 37 32 30 25 22 22 22 23
73 81 84 85 89 92 91 89 90 88 87 87 84 79 73 69 65 61 59 56 53 51 49 45 41 37 35 30 30 29 30 31
74 81 87 93 97 99 96 93 93 93 91 89 84 79 76 69 66 64 62 60 57 55 52 48 44 42 39 38 38 37 38 38
83 86 89 96 102 106 97 98 96 96 94 90 85 81 79 71 68 68 66 62 59 55 56 52 48 46 43 43 45 45 45 45
85 89 90 94 100 95 100 102 98 95 93 89 85 80 78 73 72 70 65 62 53 62 57 54 49 49 48 49 51 52 51 50
84 89 84 90 89 91 95 91 87 91 91 88 83 80 82 77 73 68 63 58 63 60 57 55 51 53 52 53 58 58 55 54
72 67 72 71 79 81 72 71 78 80 78 76 77 81 82 73 67 62 61 64 60 56 55 54 53 55 56 58 62 62 60 59
43 45 52 54 59 60 56 51 45 51 51 61 76 80 69 61 59 63 63 57 54 54 53 54 56 57 60 62 65 64 63 63
32 35 37 37 37 36 34 37 40 40 47 57 61 59 55 60 60 54 54 54 54 54 55 56 58 59 61 64 64 62 64 65
25 29 30 21 22 26 38 42 41 45 46 49 52 55 53 53 52 52 52 53 53 53 54 53 54 58 62 61 60 62 64 68
19 22 30 36 34 28 29 35 39 42 46 47 49 50 49 49 48 47 47 47 48 51 54 55 59 61 62 62 62 60 64 66
22 25 29 32 32 32 32 35 37 38 39 43 46 47 46 44 42 42 44 47 51 53 55 59 64 63 63 64 63 63 62 61
29 30 30 28 29 31 32 32 32 34 37 40 42 45 46 46 46 48 49 52 55 57 59 60 63 65 65 62 61 59 56 57
28 27 24 23 25 28 31 33 33 33 33 37 42 47 49 50 50 51 52 54 55 57 58 62 60 55 51 47 45 38 35 46
26 24 23 21 22 23 27 30 33 37 40 43 45 47 49 50 51 52 52 51 48 49 48 45 44 46 46 47 50 57 59 66
26 25 25 25 26 27 30 33 36 39 41 42 44 46 49 50 50 48 45 42 39 38 40 44 48 49 50 51 55 59 61 63
Wind_Direction_500mb
210 213 214 218 216 211 210 211 210 211 209 207 205 202 198 195 194 197 200 200 200 202 204 207 203 199 201 211 239 9 9 8
216 218 220 219 215 213 211 211 211 211 210 207 205 199 198 200 201 204 206 206 208 210 211 211 208 207 211 216 231 327 353 353
221 220 219 218 214 213 211 211 212 212 211 209 204 199 201 203 205 208 209 210 213 215 216 214 213 215 219 225 240 276 312 328
223 222 221 219 215 213 212 212 211 211 211 207 204 204 204 204 207 209 211 214 216 218 220 219 221 223 223 228 246 268 288 302
227 226 223 221 218 215 214 213 211 211 211 209 208 207 205 207 210 212 215 218 220 222 222 222 225 225 230 237 251 265 278 287
234 229 225 222 219 218 217 214 213 212 212 212 211 210 208 209 212 215 218 220 223 225 223 224 227 234 235 244 253 265 275 282
242 236 229 224 221 220 218 217 215 215 215 214 214 213 213 210 213 217 219 221 223 226 229 232 235 235 239 248 257 266 274 278
248 246 238 231 225 221 218 219 217 216 216 217 216 216 216 214 216 221 223 223 226 232 234 235 237 237 244 251 259 268 274 276
254 251 247 237 229 223 221 223 218 218 219 219 219 220 220 220 222 223 224 228 235 239 237 239 239 243 248 254 261 267 273 275
263 256 245 236 228 223 221 222 221 222 224 223 223 225 225 225 225 227 228 234 241 237 241 243 244 247 252 258 265 270 273 274
254 246 240 236 225 220 221 223 223 225 229 229 231 230 230 231 231 232 241 244 239 243 246 248 249 250 255 260 266 271 275 274
243 241 233 223 215 213 219 221 222 226 232 230 230 232 233 233 233 240 238 239 242 245 248 250 252 253 257 262 267 272 275 276
206 200 196 196 199 204 221 233 233 225 217 221 225 225 223 227 232 232 234 237 239 243 246 249 253 257 260 263 268 272 272 276
158 164 163 187 203 215 225 221 215 215 216 214 214 216 219 222 224 226 229 234 240 245 251 255 258 260 263 266 267 266 268 274
184 196 207 205 204 201 205 206 208 208 206 207 211 214 215 216 220 226 232 240 246 250 254 259 263 265 267 268 269 268 267 270
168 166 167 170 172 175 183 190 197 204 212 216 217 217 216 220 228 236 242 247 252 257 261 262 265 269 269 268 267 269 270 271
143 146 151 159 170 182 192 200 207 215 219 222 223 222 226 233 237 242 246 250 254 259 264 267 270 272 272 271 272 274 274 273
154 159 170 182 194 203 209 216 221 225 227 231 233 236 240 244 247 251 254 258 261 264 269 273 272 270 271 273 274 276 279 269
178 184 190 200 211 222 231 237 241 242 243 243 244 246 248 250 252 253 256 260 264 269 270 270 269 270 269 265 259 260 259 260
203 209 217 225 232 238 243 247 248 249 249 250 251 251 252 252 254 256 257 259 260 259 261 262 262 264 266 269 275 278 278 277
Wind_Speed_850mb
80 81 75 73 76 78 77 77 75 74 72 70 67 67 69 68 63 55 48 42 38 33 30 25 21 17 12 7 2 5 11 13
77 75 71 71 75 78 81 81 80 78 76 73 70 73 74 68 61 55 48 44 39 36 32 28 25 20 15 11 5 4 8 12
73 72 73 74 77 82 83 85 84 80 77 74 75 79 76 69 62 57 51 46 43 40 37 34 29 23 20 15 10 8 10 12
70 75 77 78 81 84 86 87 84 82 80 79 82 82 77 70 64 59 54 51 49 45 41 37 32 28 25 21 15 15 14 16
71 78 80 81 85 87 89 88 85 85 83 84 86 82 75 67 63 59 57 55 51 48 45 41 37 32 30 25 22 22 22 23
73 81 84 85 89 92 91 89 90 88 87 87 84 79 73 69 65 61 59 56 53 51 49 45 41 37 35 30 30 29 30 31
74 81 87 93 97 99 96 93 93 93 91 89 84 79 76 69 66 64 62 60 57 55 52 48 44 42 39 38 38 37 38 38
83 86 89 96 102 106 97 98 96 96 94 90 85 81 79 71 68 68 66 62 59 55 56 52 48 46 43 43 45 45 45 45
85 89 90 94 100 95 100 102 98 95 93 89 85 80 78 73 72 70 65 62 53 62 57 54 49 49 48 49 51 52 51 50
84 89 84 90 89 91 95 91 87 91 91 88 83 80 82 77 73 68 63 58 63 60 57 55 51 53 52 53 58 58 55 54
72 67 72 71 79 81 72 71 78 80 78 76 77 81 82 73 67 62 61 64 60 56 55 54 53 55 56 58 62 62 60 59
43 45 52 54 59 60 56 51 45 51 51 61 76 80 69 61 59 63 63 57 54 54 53 54 56 57 60 62 65 64 63 63
32 35 37 37 37 36 34 37 40 40 47 57 61 59 55 60 60 54 54 54 54 54 55 56 58 59 61 64 64 62 64 65
25 29 30 21 22 26 38 42 41 45 46 49 52 55 53 53 52 52 52 53 53 53 54 53 54 58 62 61 60 62 64 68
19 22 30 36 34 28 29 35 39 42 46 47 49 50 49 49 48 47 47 47 48 51 54 55 59 61 62 62 62 60 64 66
22 25 29 32 32 32 32 35 37 38 39 43 46 47 46 44 42 42 44 47 51 53 55 59 64 63 63 64 63 63 62 61
29 30 30 28 29 31 32 32 32 34 37 40 42 45 46 46 46 48 49 52 55 57 59 60 63 65 65 62 61 59 56 57
28 27 24 23 25 28 31 33 33 33 33 37 42 47 49 50 50 51 52 54 55 57 58 62 60 55 51 47 45 38 35 46
26 24 23 21 22 23 27 30 33 37 40 43 45 47 49 50 51 52 52 51 48 49 48 45 44 46 46 47 50 57 59 66
26 25 25 25 26 27 30 33 36 39 41 42 44 46 49 50 50 48 45 42 39 38 40 44 48 49 50 51 55 59 61 63
Wind_Direction_850mb
210 213 214 218 216 211 210 211 210 211 209 207 205 202 198 195 194 197 200 200 200 202 204 207 203 199 201 211 239 9 9 8
216 218 220 219 215 213 211 211 211 211 210 207 205 199 198 200 201 204 206 206 208 210 211 211 208 207 211 216 231 327 353 353
221 220 219 218 214 213 211 211 212 212 211 209 204 199 201 203 205 208 209 210 213 215 216 214 213 215 219 225 240 276 312 328
223 222 221 219 215 213 212 212 211 211 211 207 204 204 204 204 207 209 211 214 216 218 220 219 221 223 223 228 246 268 288 302
227 226 223 221 218 215 214 213 211 211 211 209 208 207 205 207 210 212 215 218 220 222 222 222 225 225 230 237 251 265 278 287
234 229 225 222 219 218 217 214 213 212 212 212 211 210 208 209 212 215 218 220 223 225 223 224 227 234 235 244 253 265 275 282
242 236 229 224 221 220 218 217 215 215 215 214 214 213 213 210 213 217 219 221 223 226 229 232 235 235 239 248 257 266 274 278
248 246 238 231 225 221 218 219 217 216 216 217 216 216 216 214 216 221 223 223 226 232 234 235 237 237 244 251 259 268 274 276
254 251 247 237 229 223 221 223 218 218 219 219 219 220 220 220 222 223 224 228 235 239 237 239 239 243 248 254 261 267 273 275
263 256 245 236 228 223 221 222 221 222 224 223 223 225 225 225 225 227 228 234 241 237 241 243 244 247 252 258 265 270 273 274
254 246 240 236 225 220 221 223 223 225 229 229 231 230 230 231 231 232 241 244 239 243 246 248 249 250 255 260 266 271 275 274
243 241 233 223 215 213 219 221 222 226 232 230 230 232 233 233 233 240 238 239 242 245 248 250 252 253 257 262 267 272 275 276
206 200 196 196 199 204 221 233 233 225 217 221 225 225 223 227 232 232 234 237 239 243 246 249 253 257 260 263 268 272 272 276
158 164 163 187 203 215 225 221 215 215 216 214 214 216 219 222 224 226 229 234 240 245 251 255 258 260 263 266 267 266 268 274
184 196 207 205 204 201 205 206 208 208 206 207 211 214 215 216 220 226 232 240 246 250 254 259 263 265 267 268 269 268 267 270
168 166 167 170 172 175 183 190 197 204 212 216 217 217 216 220 228 236 242 247 252 257 261 262 265 269 269 268 267 269 270 271
143 146 151 159 170 182 192 200 207 215 219 222 223 222 226 233 237 242 246 250 254 259 264 267 270 272 272 271 272 274 274 273
154 159 170 182 194 203 209 216 221 225 227 231 233 236 240 244 247 251 254 258 261 264 269 273 272 270 271 273 274 276 279 269
178 184 190 200 211 222 231 237 241 242 243 243 244 246 248 250 252 253 256 260 264 269 270 270 269 270 269 265 259 260 259 260
203 209 217 225 232 238 243 247 248 249 249 250 251 251 252 252 254 256 257 259 260 259 261 262 262 264 266 269 275 278 278 277